Wind_Speed
7 7 8 8 7 6 5 4 5 3 2 4 4 4 3 2 1 4 4 2 3 3 4 5 5 4 5 6 9 10 10 11 11 11 11 11 11 11 11 11 11 11 11 13 14 13 13 13 12 11 11 12 12 12 13 13 13 12 12 11 11 11 11 11 11 10 10 10 10 11 11 11 10 10 9 9 8 8 8 9 10 9 8 8 7 6
6 8 8 8 4 1 1 3 4 5 6 6 4 4 3 2 3 6 5 2 1 2 2 4 4 5 5 7 9 10 11 12 12 12 12 13 12 11 12 12 12 11 11 13 14 13 13 13 13 12 11 12 13 14 14 14 13 13 12 12 12 12 12 11 11 10 10 10 10 10 11 11 11 10 9 9 9 9 9 10 9 9 8 8 7 6
7 8 6 5 2 1 2 3 4 5 6 6 4 4 3 2 3 3 3 3 2 2 1 3 3 3 3 5 8 11 11 11 11 11 11 13 13 12 12 12 13 12 11 12 13 13 14 13 13 12 11 12 13 14 15 14 14 14 13 13 12 12 12 12 11 11 10 10 9 9 10 10 10 10 8 8 8 9 10 10 9 8 8 8 7 6
6 6 4 5 4 5 6 5 5 6 6 5 3 4 2 3 4 2 2 3 3 1 0 3 2 2 1 2 6 9 10 9 10 11 11 11 12 12 13 12 14 14 13 12 13 13 14 14 14 12 12 13 13 14 15 15 15 15 14 14 13 13 12 12 12 11 10 10 9 8 9 8 8 8 7 8 8 8 9 10 9 8 8 7 7 6
3 3 4 4 6 7 8 6 7 7 6 5 3 4 1 2 7 4 2 2 4 2 2 4 1 1 3 5 6 6 8 9 10 11 11 11 11 11 12 13 14 14 13 13 13 13 14 14 14 13 13 13 13 14 15 16 15 15 15 15 14 13 12 12 12 11 10 10 10 9 9 8 7 8 8 8 9 9 9 9 9 8 8 7 6 6
3 5 3 6 7 8 8 7 7 6 7 5 4 1 3 1 8 4 1 3 3 3 5 6 1 1 4 8 7 5 7 10 10 12 13 12 12 11 11 12 14 14 13 13 12 13 14 15 14 13 13 14 14 14 14 15 15 14 15 15 14 13 13 12 12 12 11 11 11 11 10 9 8 9 8 8 9 10 9 9 9 9 8 7 6 6
3 5 5 6 7 9 9 9 7 5 8 5 5 5 6 1 8 3 3 5 2 1 4 6 4 1 3 8 9 8 10 11 10 12 14 12 12 12 11 11 13 14 14 13 12 13 14 14 14 14 14 15 14 14 14 15 15 14 15 16 15 14 13 12 13 13 12 12 12 11 10 9 9 9 8 8 8 9 9 8 8 8 8 7 7 6
5 7 8 8 7 8 8 8 7 7 9 3 5 4 4 1 6 3 3 5 2 2 3 7 5 2 3 5 9 11 13 13 13 14 14 13 13 13 13 12 13 14 14 13 13 13 14 14 15 15 15 15 14 14 14 15 15 15 15 16 15 14 13 13 14 14 13 12 12 11 10 9 9 8 8 8 7 7 7 7 7 8 8 7 6 5
7 10 10 10 9 6 6 6 4 6 8 2 3 3 4 3 4 5 4 4 1 2 3 6 6 4 3 4 7 11 13 14 16 16 14 15 15 15 15 15 14 14 14 14 13 13 14 15 15 15 15 15 15 14 15 15 15 15 15 16 15 14 14 14 15 15 14 13 12 12 11 9 9 8 8 9 7 7 7 7 7 6 7 7 7 6
4 6 6 9 9 7 7 5 2 6 6 1 3 3 5 5 5 6 5 4 2 4 5 7 10 5 3 5 7 9 13 14 15 14 15 15 15 15 15 15 15 14 14 14 13 14 15 16 15 15 15 15 15 14 15 15 15 16 16 16 16 15 15 15 15 16 14 13 12 12 11 10 9 9 8 9 8 7 7 7 7 6 6 6 7 7
3 3 2 6 8 6 5 3 3 7 4 3 5 5 5 5 4 6 5 3 4 5 2 6 12 8 3 5 8 8 10 13 14 13 15 16 15 16 15 15 15 14 13 13 13 15 17 16 15 14 15 15 15 15 15 15 16 16 16 16 17 16 15 15 16 16 15 14 13 12 11 11 10 9 9 8 8 8 8 8 8 7 7 7 7 7
7 8 5 7 8 7 5 4 5 6 5 6 7 6 4 3 3 6 4 4 6 4 3 5 10 9 5 3 7 8 8 12 16 14 15 17 16 16 15 15 15 14 14 14 12 13 15 15 14 14 15 16 16 15 15 16 16 16 16 17 17 17 16 16 17 17 16 15 14 12 12 11 11 10 9 9 9 9 9 9 8 8 7 7 7 7
8 9 8 8 8 9 8 7 6 6 8 8 7 6 5 4 4 5 5 5 5 1 4 4 7 7 7 4 6 9 10 13 16 14 15 18 17 16 16 15 14 13 14 14 13 12 12 13 14 14 15 16 16 16 16 16 16 16 16 17 18 18 17 16 17 17 17 16 14 13 12 12 11 11 10 9 10 10 9 9 9 8 8 8 8 8
4 6 9 9 7 10 12 7 5 6 7 8 7 7 7 5 5 6 5 5 4 2 4 4 5 5 6 5 5 9 12 14 16 15 15 17 17 17 17 16 14 14 14 13 13 13 12 13 15 15 16 17 17 18 18 17 16 16 16 17 18 18 18 17 17 17 17 17 15 14 13 12 12 12 11 10 10 10 10 9 9 9 9 9 8 8
3 3 8 8 5 11 14 9 6 7 7 8 7 8 8 6 6 6 3 3 3 2 4 4 4 4 3 3 4 4 8 11 14 14 13 14 16 16 16 16 15 15 14 12 13 14 13 15 17 16 17 18 18 18 18 17 17 16 16 18 19 19 19 18 17 17 17 17 16 15 14 13 12 12 11 10 10 10 10 9 9 9 8 8 8 7
4 2 5 4 2 8 14 11 8 8 7 7 7 8 8 6 6 5 4 3 3 2 3 4 4 3 1 5 5 2 4 8 11 13 12 12 13 15 15 15 15 15 14 13 13 13 15 17 18 17 18 18 18 19 19 18 18 18 17 18 19 19 19 19 19 18 17 17 16 16 15 14 13 12 11 10 10 10 10 9 9 9 8 8 7 7
4 2 5 2 4 8 10 9 9 9 5 3 6 9 6 3 5 6 6 5 5 5 3 3 4 3 4 4 2 2 4 7 10 12 13 12 13 14 14 14 15 15 14 14 13 13 14 17 18 18 18 18 18 19 19 19 19 19 18 19 20 19 19 19 19 19 18 17 16 16 16 16 15 13 12 11 11 10 10 9 9 8 8 8 7 7
3 2 3 0 2 4 6 7 9 10 7 4 5 6 5 3 5 5 5 5 6 6 3 3 4 3 3 2 2 2 5 8 10 11 12 13 13 13 12 12 14 16 15 14 14 14 15 17 18 18 18 18 19 19 20 21 20 19 19 19 20 21 20 20 20 19 18 17 17 17 17 17 16 15 14 12 11 10 10 10 9 9 8 8 8 8
3 3 3 3 4 2 3 7 7 8 9 6 3 2 4 5 5 6 5 5 5 5 3 3 4 1 2 1 2 2 3 6 10 12 12 13 14 13 13 13 14 15 15 14 14 14 14 17 19 19 18 18 19 20 20 21 19 19 19 19 20 21 20 20 19 19 18 17 17 16 17 18 17 15 14 12 11 10 10 10 10 9 9 8 8 8
2 4 1 5 6 4 4 7 6 7 8 5 3 3 4 4 4 4 3 4 3 2 2 2 3 3 3 3 3 3 1 4 9 12 13 15 15 13 12 13 14 15 14 13 14 13 14 17 20 20 20 19 20 20 19 19 19 19 19 19 19 19 19 19 18 18 18 17 17 16 16 17 17 16 15 13 12 11 11 10 10 10 9 9 8 9
2 4 3 5 6 3 5 4 6 5 7 7 5 5 5 3 3 3 4 4 3 2 1 2 2 3 4 3 5 4 3 3 7 10 12 14 15 13 12 13 13 13 14 14 14 13 14 18 20 20 20 19 19 19 19 19 19 18 18 18 19 19 19 19 19 18 17 17 16 16 16 16 17 16 16 14 13 13 12 11 11 10 9 9 9 9
3 4 5 2 3 4 4 4 8 5 4 6 4 4 6 5 5 5 6 5 3 2 1 1 4 1 3 4 5 5 4 3 6 9 10 13 15 13 12 12 12 12 13 13 14 14 14 17 19 19 19 18 18 18 18 18 18 18 18 17 18 18 18 18 18 18 17 16 16 16 16 16 16 16 15 15 14 14 13 12 11 11 10 10 10 10
3 4 6 5 3 1 3 5 7 3 2 2 3 4 7 3 3 6 4 3 3 1 1 2 5 2 3 4 5 5 4 2 3 7 9 11 13 12 10 9 10 10 10 12 14 14 14 17 18 18 19 18 18 18 18 18 17 18 18 17 17 18 18 17 17 17 16 16 16 16 15 15 15 15 15 15 14 14 14 13 12 12 11 11 10 10
1 4 5 5 3 2 4 4 3 3 4 2 1 5 4 0 2 5 3 2 3 2 1 4 5 1 3 4 5 5 4 3 3 6 8 9 11 11 9 7 8 8 7 9 11 12 14 16 17 17 18 18 17 18 18 18 17 18 18 18 18 18 18 18 17 16 16 16 16 16 15 15 16 15 16 16 15 14 14 13 12 12 12 12 11 11
1 4 4 5 4 3 5 3 2 4 5 3 2 1 0 1 4 5 3 3 5 3 3 7 4 2 2 3 4 5 6 6 6 5 7 8 9 9 8 6 7 8 8 8 8 10 13 14 14 16 17 17 17 17 18 18 17 17 18 18 18 18 18 18 17 17 16 16 16 16 16 16 16 16 16 16 15 15 15 14 13 13 12 12 12 11
2 2 2 4 5 6 5 2 3 5 5 5 3 4 2 0 4 6 3 4 6 2 2 6 3 2 2 3 5 5 6 7 7 6 5 6 8 10 9 6 6 7 9 9 9 10 10 10 12 15 16 17 17 17 18 18 18 17 18 19 18 18 17 17 17 17 17 16 16 16 16 16 16 16 16 16 16 15 15 15 14 13 13 12 12 11
2 0 1 1 1 5 5 1 4 6 4 3 3 3 3 3 3 7 6 6 5 1 3 6 4 1 2 4 5 5 6 7 7 6 4 3 5 8 10 9 8 7 8 9 10 10 9 9 11 14 16 16 17 17 18 18 18 18 18 19 18 17 17 17 16 17 17 16 16 16 17 17 17 16 16 16 15 15 14 14 14 14 13 12 12 12
2 1 0 3 5 5 4 1 3 4 3 3 3 3 4 3 4 8 10 6 2 2 4 2 3 3 3 6 4 5 6 6 7 7 5 3 1 4 9 11 11 10 9 9 9 10 10 10 10 12 14 15 15 16 16 17 17 18 18 18 18 17 17 17 17 17 17 17 16 16 17 18 17 17 16 15 15 14 14 14 14 13 13 12 12 12
3 2 1 1 5 6 5 3 2 2 3 4 3 3 3 2 3 6 11 8 2 5 5 4 4 2 5 5 4 5 5 5 7 6 5 5 4 1 5 10 12 12 11 10 9 9 9 9 8 9 10 11 12 13 14 14 15 16 16 16 17 17 17 17 17 17 17 17 17 17 16 16 16 16 16 15 14 14 14 13 13 13 12 12 12 12
3 2 3 3 2 3 3 3 1 2 2 2 2 2 3 1 1 2 7 9 7 9 11 9 5 2 6 4 4 5 4 5 6 6 7 8 7 5 4 6 9 10 10 8 7 6 6 6 6 6 7 7 8 9 10 10 11 12 13 13 15 16 17 18 18 18 17 17 18 17 15 13 13 14 15 15 14 14 14 13 12 12 12 12 12 11
3 2 5 4 2 3 5 4 2 3 2 1 2 3 5 3 2 2 2 4 5 9 12 12 8 4 4 3 6 7 7 8 8 7 8 8 7 8 8 9 9 9 9 8 7 7 6 5 5 4 3 3 5 7 9 9 10 11 11 12 13 13 14 14 15 16 17 17 16 15 13 12 11 11 12 14 14 14 13 13 12 11 11 11 11 10
3 2 5 3 1 3 5 6 5 4 1 1 3 4 4 3 3 3 3 3 3 5 8 11 9 5 5 5 8 10 10 11 10 9 9 8 8 8 7 8 9 9 10 9 9 9 8 7 7 6 5 3 0 3 6 8 9 11 12 13 13 13 13 13 13 13 14 13 13 13 13 13 12 11 11 11 12 13 13 12 12 11 10 11 11 11
3 2 4 4 3 4 6 7 7 5 4 2 2 4 4 3 2 2 2 3 5 5 4 9 6 6 8 8 9 10 10 11 10 10 9 8 9 8 7 8 7 8 8 8 9 8 8 8 8 7 8 5 3 2 2 5 7 10 11 12 12 13 14 15 15 14 13 11 11 12 12 13 12 12 11 10 10 11 12 12 12 12 12 12 11 11
3 3 2 2 3 4 5 6 7 6 5 1 4 5 4 3 2 2 2 4 6 4 4 8 3 9 9 9 11 11 11 11 11 11 10 9 9 8 8 9 8 7 7 7 8 7 7 8 7 5 5 5 3 3 2 3 6 9 11 11 12 14 15 15 15 14 13 12 11 11 12 12 12 12 11 10 9 9 11 12 12 12 12 11 11 10
4 4 2 2 3 2 2 5 7 5 2 1 4 4 3 3 2 2 2 3 4 4 6 6 4 11 10 11 12 12 13 13 12 13 13 11 10 9 9 9 9 8 7 7 7 7 6 7 7 5 4 4 3 2 2 2 4 7 10 11 12 13 14 14 14 13 13 12 12 11 10 10 11 11 10 10 10 9 9 10 10 11 11 10 10 9
5 4 2 2 3 2 2 4 5 2 1 2 3 2 1 2 1 2 1 2 3 2 4 2 5 10 10 11 11 10 12 13 12 12 12 11 10 10 8 8 8 8 8 8 8 7 7 7 7 6 5 2 2 2 1 0 2 3 5 8 11 12 13 13 13 13 12 11 11 11 12 11 9 9 8 8 9 8 7 8 8 9 9 8 8 7
5 4 3 3 2 3 4 3 1 2 4 4 3 2 1 2 2 1 2 1 2 2 3 2 5 11 10 10 10 9 9 10 9 9 10 10 10 10 10 9 8 9 10 9 8 7 8 8 7 5 4 2 1 2 2 1 1 2 2 2 5 8 9 10 10 10 10 10 11 12 12 11 9 8 7 7 7 7 6 6 6 6 6 6 7 6
4 3 4 4 2 2 5 4 2 3 4 3 3 5 5 4 6 4 2 1 1 3 6 7 1 8 9 7 9 9 6 6 7 6 7 8 8 9 10 10 10 11 11 10 10 10 10 10 8 6 5 5 4 3 1 1 1 1 1 1 2 3 5 7 8 9 10 10 10 11 11 9 9 8 7 6 5 5 4 4 4 4 5 5 5 5
4 4 4 5 4 3 5 5 3 2 1 4 5 6 6 6 6 4 1 0 2 4 4 8 7 1 4 3 4 7 5 4 5 4 5 7 8 8 9 10 11 12 12 13 13 13 12 11 10 11 11 11 9 6 4 4 4 3 2 2 1 3 4 5 6 8 10 8 6 7 8 8 7 7 6 5 4 3 3 4 4 5 6 6 6 5
4 4 4 6 5 3 4 5 3 2 4 7 6 5 5 5 5 3 1 2 2 5 3 4 7 5 6 5 1 2 2 4 5 4 5 7 9 10 10 11 11 12 13 14 15 14 14 14 14 15 14 12 11 9 8 7 7 7 8 7 5 4 2 4 6 7 8 8 6 6 7 7 6 5 5 7 7 5 4 4 5 6 7 6 6 5
4 4 4 6 5 3 3 5 2 2 4 6 6 4 5 5 4 1 3 2 3 4 2 1 3 4 6 6 5 5 6 7 8 7 8 9 10 11 12 13 13 14 14 15 15 15 16 16 16 16 15 12 11 11 12 12 11 10 11 12 10 8 6 5 4 4 6 7 6 5 4 4 4 4 5 8 8 6 5 6 6 6 6 6 5 5
4 4 4 5 5 2 3 5 2 2 2 3 6 7 5 4 1 2 3 5 6 6 5 2 2 4 5 8 8 7 8 10 10 9 10 10 10 11 12 14 15 15 16 16 16 17 18 18 18 18 17 14 13 12 13 15 14 12 13 15 13 9 8 8 6 5 6 7 6 4 2 2 4 5 6 6 5 6 7 7 7 6 6 6 5 6
2 3 4 4 2 2 4 4 3 1 2 2 5 6 3 2 1 2 3 5 6 6 7 6 4 5 8 10 9 8 9 10 10 11 11 11 11 12 13 15 15 16 17 17 16 18 19 19 19 19 18 17 17 15 15 16 16 14 15 16 14 12 13 14 11 9 10 10 9 7 5 5 5 6 7 6 6 7 7 7 6 6 7 8 8 9
0 3 4 1 1 3 4 2 1 1 2 2 3 2 3 2 2 3 3 4 5 5 6 7 7 8 10 10 10 9 9 10 10 11 11 10 11 12 13 15 16 17 17 17 16 18 19 19 19 19 19 19 19 19 19 19 19 18 17 17 16 17 18 18 17 16 16 15 14 11 9 7 6 6 7 8 8 7 8 7 6 7 9 11 11 10
1 1 3 2 2 1 2 3 3 2 3 3 1 3 6 6 4 4 4 5 5 5 6 7 9 10 11 11 10 9 9 10 10 11 10 10 10 10 12 14 16 16 16 16 16 16 17 18 18 18 19 19 19 20 20 21 21 20 19 19 21 22 21 21 21 21 19 17 16 13 12 10 8 8 8 8 9 11 11 10 9 10 11 12 12 12
3 1 2 1 2 3 3 3 3 3 4 5 4 5 7 7 6 6 7 7 6 7 7 9 10 11 11 10 9 8 9 10 11 11 10 10 10 10 11 12 13 14 14 14 14 15 15 16 17 17 17 17 17 17 17 18 20 20 17 17 20 22 22 22 22 20 17 16 14 13 15 16 14 13 12 11 12 14 14 13 14 15 15 15 14 13
4 3 2 1 3 3 2 3 4 4 4 5 5 5 7 8 7 7 8 8 8 8 9 10 11 12 11 11 10 10 10 11 11 11 10 9 10 11 12 13 13 13 13 13 13 13 14 14 15 15 16 15 15 15 15 16 18 18 16 15 18 21 22 22 21 17 16 16 15 14 17 19 18 16 16 16 18 19 18 16 16 17 17 16 14 12
4 5 3 3 3 2 3 5 5 4 4 4 4 5 6 8 9 9 8 9 10 10 10 10 11 11 11 11 11 11 12 11 11 11 10 9 9 11 12 13 13 13 13 13 13 14 14 14 14 14 15 14 14 14 15 16 16 16 14 14 15 15 15 16 15 13 14 16 17 17 18 19 19 19 19 20 21 22 21 18 17 17 16 15 13 12
4 4 3 4 4 2 4 6 6 5 5 5 4 5 7 7 9 10 10 10 10 10 10 10 10 11 12 12 11 12 12 11 11 11 10 9 9 11 12 12 13 13 13 13 13 14 14 15 15 15 14 14 13 14 15 15 15 14 12 11 11 11 11 11 11 11 11 13 14 14 14 14 15 15 16 17 18 20 19 16 15 14 14 14 13 12
4 4 3 4 5 3 4 8 8 4 4 6 6 7 8 8 10 11 11 10 10 10 10 10 11 12 13 13 13 12 11 11 11 11 11 10 10 12 12 12 12 13 12 12 13 13 14 14 14 15 14 13 13 13 13 14 13 13 12 11 10 10 10 10 10 10 10 10 10 10 10 10 10 10 11 12 14 17 17 15 13 13 13 12 12 11
4 4 4 2 1 2 5 10 8 2 4 8 8 8 9 9 9 10 11 11 11 10 10 11 12 12 12 13 14 13 11 11 12 12 11 11 11 12 12 12 12 12 12 12 12 12 13 13 13 14 14 13 12 12 13 13 12 12 11 11 9 9 9 9 9 10 9 9 9 9 9 9 9 9 9 9 10 12 14 15 16 15 14 13 12 11
Wind_Direction
203 206 203 218 223 208 207 247 280 312 300 290 318 300 301 337 3 43 52 146 170 197 180 166 199 196 155 186 201 189 196 199 188 182 175 175 175 173 177 174 169 173 170 163 164 164 162 163 161 160 168 168 166 166 165 167 168 168 171 169 167 165 162 161 161 163 163 161 158 157 158 157 156 154 154 157 157 155 153 151 154 156 157 158 158 160
204 224 211 211 212 157 220 274 276 261 259 269 296 296 296 346 23 40 46 73 100 229 163 130 196 206 169 189 201 189 194 199 191 187 179 177 178 175 178 175 170 173 169 163 163 165 165 164 163 161 168 171 167 167 170 171 168 170 173 172 171 169 169 170 168 169 169 166 163 161 161 158 154 158 160 160 160 157 153 154 156 157 161 162 161 161
204 230 206 181 178 176 234 266 264 255 256 256 267 276 286 342 14 58 86 112 133 238 167 122 181 199 167 197 204 194 199 200 191 191 186 180 179 177 179 175 173 174 172 169 166 168 170 167 165 164 169 174 170 170 174 173 169 171 174 174 175 174 175 177 175 175 174 170 169 165 161 157 155 159 160 156 156 155 154 157 160 161 163 165 164 164
206 215 175 163 189 219 223 229 248 251 246 237 244 266 299 1 332 358 96 129 153 234 171 136 160 178 168 241 229 205 203 201 193 196 193 185 183 181 181 177 177 177 173 174 172 171 172 169 169 170 172 174 172 173 175 174 172 173 175 176 177 178 179 180 179 179 176 172 171 166 158 152 151 154 154 152 155 157 158 161 165 166 167 168 168 165
228 101 119 180 195 224 232 224 236 249 243 205 207 269 7 15 317 338 58 137 164 203 166 125 90 242 201 212 219 208 208 206 197 199 197 190 188 186 184 182 181 180 176 179 179 174 172 172 174 174 174 176 175 177 178 177 176 175 176 176 177 179 181 180 180 180 176 172 169 165 160 153 150 156 160 161 163 164 165 169 171 172 173 173 171 167
223 105 144 206 199 220 236 235 232 244 256 213 164 188 104 32 306 325 304 232 199 205 167 149 166 247 202 206 203 196 215 213 200 200 198 190 188 189 189 186 184 182 181 185 184 177 176 175 175 176 179 180 179 180 181 179 178 176 174 175 177 178 180 180 179 178 174 172 172 170 169 167 164 166 170 172 171 169 173 176 173 173 176 179 177 174
199 138 188 215 203 215 228 241 233 227 260 243 122 109 117 219 293 296 262 270 293 38 146 176 209 189 204 211 195 190 208 213 212 206 199 192 188 189 192 191 188 185 183 188 188 183 182 178 176 180 184 185 183 181 180 179 177 176 173 174 177 177 178 178 177 178 177 176 178 179 180 178 175 173 170 173 172 171 175 176 173 175 179 185 187 181
187 180 200 213 216 219 220 234 226 218 252 252 109 130 134 207 286 278 264 280 324 29 163 192 211 216 231 209 183 190 203 208 215 212 201 196 193 191 195 194 192 190 185 186 188 187 186 183 182 185 186 186 184 179 179 179 176 174 174 174 176 177 177 177 176 178 180 182 184 185 185 182 182 176 168 169 170 169 174 174 176 180 181 188 195 189
183 208 206 211 224 230 227 244 231 221 248 233 123 171 125 116 273 272 273 287 323 281 227 186 192 224 229 175 164 190 206 209 209 208 202 198 194 192 197 196 193 192 190 188 188 188 188 188 188 187 186 185 182 178 179 179 175 173 174 174 175 177 177 177 177 179 183 186 186 186 186 183 182 178 171 172 172 168 173 176 177 183 184 189 198 199
175 222 219 218 228 232 230 247 258 243 250 156 144 192 136 142 234 256 265 283 250 252 256 178 180 217 228 166 164 191 212 215 209 206 203 199 194 192 196 198 194 191 191 192 189 187 189 192 193 189 186 184 180 177 178 179 176 174 174 175 177 178 179 180 179 180 185 186 186 188 189 186 182 177 176 175 174 174 178 182 183 188 194 195 198 199
164 168 224 231 237 250 239 210 230 248 242 156 181 200 146 138 234 256 254 262 244 239 243 162 182 214 246 174 173 192 209 209 207 205 198 195 194 193 195 197 194 190 189 192 190 188 189 193 195 190 185 183 179 175 178 180 178 176 176 177 179 180 180 181 181 183 186 188 190 192 192 193 187 182 182 180 179 181 185 190 192 193 199 202 201 198
193 187 205 216 223 238 229 196 211 224 203 196 208 200 166 152 229 256 237 223 243 229 109 143 187 210 239 192 177 195 204 203 208 205 192 192 195 193 194 196 193 189 188 189 190 189 188 190 195 192 184 181 177 176 179 181 180 179 179 179 180 182 182 182 183 186 189 191 194 197 197 198 195 190 190 189 188 189 190 196 197 196 200 204 205 204
201 200 200 198 203 215 217 203 195 197 199 212 216 202 213 210 207 247 230 206 234 186 104 146 179 204 244 243 190 195 203 206 212 210 192 189 192 190 192 193 192 190 188 187 189 191 189 188 192 190 182 178 178 179 181 183 182 180 180 182 183 184 185 184 186 188 191 194 197 200 202 201 201 199 198 197 196 195 197 201 201 200 202 204 208 209
192 181 185 188 184 201 217 216 188 191 204 213 210 208 225 224 215 239 227 209 228 133 113 163 184 217 248 234 196 201 208 208 210 210 197 190 192 191 190 191 190 189 189 188 187 190 191 187 188 187 181 180 182 182 183 183 183 181 181 184 185 187 187 187 188 190 192 197 199 201 204 204 204 204 204 204 203 201 200 203 205 205 206 207 210 212
256 158 172 193 170 181 207 223 211 199 210 218 215 219 234 231 222 244 244 226 235 153 133 159 194 247 254 160 148 196 209 206 205 204 199 197 198 192 188 190 190 187 188 190 188 189 191 187 187 187 183 184 185 184 185 184 183 183 183 184 187 188 189 190 190 191 194 197 200 202 205 207 207 207 209 209 209 208 206 206 207 209 213 213 210 211
269 94 130 198 173 179 206 219 221 222 222 218 215 223 239 235 221 253 287 285 290 272 184 179 205 249 193 139 130 136 194 192 193 194 193 198 203 197 190 189 190 187 185 190 191 189 190 188 187 188 186 187 187 185 186 185 184 185 185 185 188 189 190 192 192 193 195 197 199 202 204 207 208 209 211 211 212 214 213 212 212 213 218 220 215 212
254 121 109 193 204 203 224 220 212 230 235 203 212 223 232 240 235 251 265 257 266 267 227 198 226 215 165 152 139 204 204 178 178 187 190 194 201 201 193 188 191 189 184 188 191 191 191 189 189 190 189 188 188 187 186 186 186 187 187 187 189 190 191 193 194 195 196 196 199 201 203 205 207 210 213 214 213 214 214 217 220 220 221 221 219 216
299 207 121 56 209 202 242 233 210 218 229 224 222 215 198 209 239 248 259 250 237 241 223 202 238 223 177 175 149 181 187 171 171 177 184 192 200 201 192 188 193 191 184 185 188 189 190 190 189 190 191 189 188 189 188 187 187 188 189 189 190 191 193 194 195 197 197 197 199 201 202 204 207 210 214 215 215 216 215 217 220 223 223 221 219 217
321 257 142 65 21 16 243 229 208 199 222 251 285 221 204 214 217 212 241 261 242 240 247 211 210 190 34 51 113 127 154 170 173 169 173 188 198 202 193 189 196 194 187 185 186 188 188 189 190 189 191 190 189 190 189 187 188 189 191 193 193 194 196 196 196 197 198 199 200 202 202 204 206 210 213 215 215 216 218 218 220 222 223 221 218 215
297 263 204 82 46 342 251 218 209 185 196 240 274 238 233 236 226 208 229 261 252 235 256 239 201 122 49 1 358 1 6 189 184 174 176 184 190 199 196 191 197 196 190 188 188 187 187 189 191 190 191 190 188 190 190 188 190 191 192 194 196 196 197 199 199 198 199 201 203 203 202 203 205 208 212 215 215 217 220 220 222 223 221 220 219 216
238 254 259 114 114 235 242 234 249 203 177 208 214 211 224 209 202 231 242 250 259 239 189 270 272 103 77 352 334 335 318 238 202 185 180 180 182 192 197 195 194 191 190 190 189 189 187 189 192 191 191 190 189 190 190 189 190 192 193 193 196 197 198 200 201 200 201 203 204 205 203 203 204 207 211 214 217 220 222 221 222 223 221 219 219 219
250 260 266 214 168 223 211 229 267 259 204 212 187 202 236 210 184 216 221 202 211 233 140 228 279 353 41 341 329 332 320 270 209 194 183 178 179 185 195 195 183 178 185 189 190 191 189 190 193 191 189 189 189 189 191 190 190 191 192 192 195 198 199 202 203 202 202 204 206 207 206 205 204 206 211 214 216 218 219 218 217 219 219 220 219 219
320 286 271 267 278 340 131 194 244 243 157 113 115 216 245 222 198 238 235 172 165 147 51 268 259 281 18 344 339 343 336 317 198 189 181 176 177 178 179 179 170 167 180 191 193 194 190 191 192 189 187 186 186 188 189 189 187 189 189 189 192 196 198 201 204 204 202 204 208 208 208 208 207 207 210 214 216 217 218 216 214 214 217 220 220 218
292 278 269 260 266 71 113 148 206 159 114 77 191 227 249 225 231 264 283 261 221 153 129 263 251 197 38 2 350 358 16 45 120 163 170 170 173 171 161 161 170 169 176 190 196 196 193 192 190 187 185 184 184 186 187 186 184 185 185 185 189 195 196 199 203 203 201 203 208 209 209 209 209 209 210 212 215 217 218 218 214 214 216 220 223 221
285 304 293 260 247 203 169 143 161 167 154 176 191 147 59 322 267 254 237 252 254 197 205 259 265 84 57 29 17 16 39 61 80 118 156 169 172 170 157 155 171 174 177 186 195 199 197 192 188 185 182 181 184 184 184 185 184 183 183 185 188 192 195 198 201 202 201 203 206 207 210 211 210 211 211 213 215 216 217 219 217 216 217 220 224 225
300 319 297 257 252 241 227 188 204 213 186 171 135 86 93 330 278 261 233 224 235 191 205 260 290 72 97 58 36 24 44 63 71 88 125 155 169 173 171 169 171 172 177 186 196 202 199 191 184 181 180 182 185 184 182 185 186 184 185 188 189 190 193 196 198 200 201 202 204 205 208 211 212 213 212 214 217 216 216 219 219 218 218 219 222 224
263 240 312 295 233 248 259 194 191 236 237 163 115 88 120 136 229 251 251 228 223 283 260 247 261 242 136 76 39 23 37 52 59 65 76 117 165 174 173 173 174 175 177 185 195 198 194 189 185 183 183 184 187 187 185 186 188 188 189 192 192 189 190 192 194 196 199 201 203 203 205 209 213 215 215 214 217 219 217 217 219 218 217 217 219 220
288 247 352 67 110 171 222 180 172 221 232 179 147 124 122 121 181 228 247 233 156 289 272 266 286 267 102 76 41 27 31 38 46 43 43 66 129 175 171 167 171 178 178 183 192 193 191 190 188 189 190 189 191 191 189 189 190 191 192 193 192 190 188 189 191 193 196 199 202 203 203 207 211 214 216 215 216 219 220 219 219 219 219 218 218 219
272 248 223 118 124 151 174 182 189 214 210 198 186 138 117 132 173 220 252 255 216 239 265 335 309 258 88 75 53 42 32 39 49 43 47 67 67 84 175 168 169 175 176 181 189 189 192 194 190 195 197 197 200 197 193 195 196 195 195 194 192 190 187 187 189 192 194 197 202 204 205 206 208 211 214 214 215 217 220 222 220 218 219 220 222 224
261 236 172 151 134 170 191 185 201 298 277 205 182 96 75 67 142 187 249 264 266 258 269 284 265 143 81 76 71 57 45 54 63 60 56 64 64 50 76 133 148 154 153 158 166 167 178 185 181 187 192 194 203 202 201 206 204 201 202 200 196 192 189 188 189 192 195 198 202 203 202 202 204 207 210 211 212 214 216 220 221 220 220 222 225 229
248 215 149 133 127 220 226 217 238 296 326 65 110 78 58 46 63 80 270 278 273 265 269 261 230 149 94 103 87 72 66 64 64 68 65 65 77 77 71 80 96 105 103 103 109 111 113 115 116 129 152 185 206 207 208 211 208 205 207 207 203 196 194 195 195 196 198 201 202 200 197 198 199 200 206 210 212 213 214 217 220 221 221 221 224 228
256 192 148 155 265 249 234 242 261 272 263 116 93 61 46 58 66 21 342 329 322 320 296 262 228 162 133 125 95 83 79 70 63 67 71 69 78 95 100 80 73 78 81 82 86 87 85 77 74 73 70 62 289 231 221 216 213 210 207 204 201 195 197 203 208 209 207 205 204 199 197 201 200 199 203 208 211 214 214 215 217 218 219 221 224 226
265 225 169 190 252 254 233 248 273 271 240 201 97 54 34 65 76 354 344 338 338 6 328 264 234 129 129 130 108 99 91 77 67 64 69 73 73 84 104 97 79 70 72 76 77 79 83 79 68 60 61 58 34 343 267 239 229 224 219 211 201 194 197 202 207 213 214 212 211 207 205 206 203 202 204 205 210 213 213 214 215 216 219 222 226 229
258 264 227 207 256 251 225 239 263 257 247 220 88 67 33 45 35 331 3 349 327 354 317 274 220 115 118 117 104 100 90 78 72 66 63 71 77 76 83 91 90 79 72 73 70 67 74 79 73 65 66 65 47 19 336 275 247 234 227 219 207 199 200 200 202 206 208 208 210 210 211 212 208 205 202 201 204 208 212 217 217 217 219 221 224 227
257 267 285 270 283 290 217 239 259 255 233 110 99 83 50 62 39 316 8 356 304 325 331 293 153 114 103 99 96 93 87 77 69 65 59 60 71 75 73 75 79 77 71 69 66 56 51 60 59 46 42 44 32 12 351 301 265 241 227 222 216 209 205 204 204 204 202 203 206 203 205 212 214 211 204 202 205 207 212 217 219 221 221 220 222 222
264 270 283 276 290 302 252 250 275 294 121 158 151 136 118 93 40 272 109 71 288 328 356 303 133 108 101 105 101 95 93 83 64 53 51 51 60 68 70 68 68 71 69 65 60 51 46 50 45 28 11 343 272 256 253 334 325 282 236 224 220 215 213 211 209 206 202 199 196 192 194 199 205 208 204 205 211 213 215 218 221 223 220 217 218 216
263 275 280 263 259 279 278 277 274 212 203 202 167 120 96 74 70 96 113 71 304 0 16 305 134 115 113 118 115 114 108 91 67 48 43 49 58 66 69 67 63 67 71 72 70 62 53 50 45 28 8 342 285 261 260 264 308 348 334 249 223 214 210 207 204 200 196 192 187 186 187 182 181 191 197 205 214 216 215 216 218 217 214 216 213 202
246 259 274 267 241 263 282 282 254 232 217 184 124 98 95 103 104 111 139 225 343 34 6 329 306 124 122 128 137 143 133 90 68 47 41 52 63 70 72 68 62 60 61 63 66 63 58 57 52 42 44 47 46 50 47 45 180 207 275 294 256 223 201 190 185 179 177 178 179 179 178 174 175 184 191 201 216 226 223 207 201 213 222 226 215 199
230 231 247 260 248 244 272 274 276 304 76 126 129 119 115 127 135 143 180 351 85 84 26 325 306 110 93 93 158 169 162 111 86 63 52 63 67 70 74 70 64 62 59 56 57 57 58 60 57 51 52 51 45 46 60 80 106 125 92 52 321 254 212 177 160 160 167 170 165 163 166 170 174 177 184 188 188 211 232 211 199 214 225 223 215 211
231 231 230 248 248 233 259 274 294 19 83 108 118 116 118 142 175 186 346 354 65 91 77 319 307 323 346 344 346 154 123 112 114 102 84 80 76 73 73 69 64 63 62 62 63 62 60 59 58 55 53 52 54 62 76 88 93 89 80 77 63 32 57 110 115 131 157 168 170 169 170 173 173 176 198 204 193 192 216 218 206 206 210 209 204 201
235 240 243 259 260 228 247 272 285 81 95 101 101 110 138 168 199 246 42 82 110 95 91 313 342 0 353 7 50 68 70 95 115 114 101 92 84 78 75 74 72 70 69 70 72 72 69 67 67 66 64 67 75 84 93 95 89 84 89 95 85 57 54 92 125 149 159 161 171 184 184 181 176 179 206 216 207 194 197 207 199 189 192 198 188 178
238 236 237 257 268 257 256 268 251 117 88 75 96 119 158 196 225 27 69 115 131 135 151 165 71 66 65 65 73 84 94 104 109 106 100 94 90 87 85 83 82 80 78 77 76 78 78 75 71 70 71 75 78 85 95 98 93 89 90 90 87 81 88 103 122 151 152 146 153 162 141 136 156 179 197 202 189 173 174 184 189 183 183 184 165 151
272 259 238 233 260 262 250 259 262 108 83 114 128 139 181 252 29 88 103 108 121 139 147 144 128 114 106 100 102 107 108 107 106 103 100 96 93 94 93 91 89 88 87 84 81 82 82 78 72 68 67 70 73 77 82 85 84 82 80 80 84 93 98 99 101 108 111 113 119 118 109 112 132 157 167 161 157 161 156 158 172 173 160 150 140 131
237 283 266 239 49 271 259 260 318 40 99 164 179 135 117 109 111 137 137 115 121 138 139 134 132 126 119 119 122 120 114 111 109 104 100 94 91 91 91 92 93 92 90 88 87 87 85 83 80 75 69 66 69 74 78 78 77 72 67 72 84 92 94 96 97 94 90 90 95 98 103 110 117 123 130 133 140 145 141 142 147 134 125 128 129 123
63 346 307 347 47 333 342 49 77 98 112 132 127 94 111 123 126 134 133 126 132 141 139 135 132 128 128 129 129 125 120 113 107 104 100 96 91 88 87 89 92 91 89 88 88 89 90 90 90 86 79 73 71 75 79 80 78 73 67 70 80 84 84 85 86 84 80 79 81 83 89 96 98 96 101 116 132 136 134 134 128 114 109 114 117 115
80 118 276 293 116 108 65 66 101 119 114 115 113 112 123 131 132 132 131 129 134 140 141 137 133 133 135 133 128 123 117 112 106 103 100 97 94 89 86 86 86 87 86 84 85 88 89 91 91 89 86 82 78 77 79 79 78 77 74 74 78 80 81 80 78 76 76 77 77 79 83 84 84 85 87 94 110 119 120 118 113 108 105 106 107 108
142 186 233 187 161 163 143 128 128 122 120 124 125 128 130 130 132 133 129 129 135 139 139 136 135 137 136 130 125 121 116 113 109 103 100 98 94 90 87 85 83 82 83 82 83 85 86 87 87 86 85 84 82 81 81 79 79 82 84 84 87 88 88 85 82 80 81 82 81 83 86 86 84 85 87 88 91 95 98 100 102 102 101 101 102 106
158 200 214 165 166 159 105 121 128 125 128 132 134 139 138 131 129 127 124 127 132 135 135 135 136 137 133 128 126 123 118 113 110 107 104 101 96 93 90 88 86 85 84 82 83 84 85 85 85 84 83 81 80 80 80 80 82 87 91 89 90 93 93 91 91 90 90 90 90 89 90 91 88 85 85 86 87 88 89 89 93 96 98 100 102 106
137 177 180 161 166 141 115 142 154 146 143 149 145 139 139 134 128 124 122 123 125 127 129 131 131 131 129 128 128 125 120 116 112 109 106 102 100 100 96 93 92 89 86 83 81 82 83 83 82 83 81 79 78 77 77 78 79 83 86 87 89 93 95 98 100 99 96 98 100 100 98 95 92 90 90 91 91 91 90 91 94 98 102 104 106 108
171 169 157 181 198 189 154 163 172 167 148 151 148 141 139 135 130 127 127 128 130 130 131 129 127 127 129 131 131 128 122 120 119 116 112 108 106 106 104 102 100 96 92 90 87 84 83 82 82 81 79 78 77 76 75 76 75 75 78 80 84 90 92 94 96 96 97 102 106 107 106 104 102 102 103 102 99 95 93 93 95 98 103 106 108 110
196 174 170 201 282 65 130 155 172 183 123 135 142 143 141 138 135 133 132 133 135 136 137 134 130 129 132 133 132 128 124 125 126 122 116 112 110 109 108 107 105 102 101 99 94 89 85 83 82 82 80 78 77 75 73 71 70 70 72 73 77 85 89 90 91 91 96 103 104 102 105 106 105 104 103 103 102 99 95 90 85 85 90 96 102 108
Height
789 797 802 799 795 791 791 791 791 795 800 803 805 807 804 805 807 806 810 807 801 813 819 816 819 819 817 815 808 804 801 800 801 803 804 805 805 806 807 808 810 812 811 812 815 818 821 824 826 829 831 833 835 837 839 840 842 843 845 846 847 849 850 851 852 853 854 855 856 856 857 858 859 860 861 862 863 863 864 866 867 868 869 869 870 871
791 800 797 789 788 788 790 791 792 795 799 801 806 808 804 804 807 807 810 808 803 813 818 814 820 821 816 815 809 804 805 803 801 803 804 805 805 805 807 809 810 810 809 811 815 817 820 823 825 828 830 832 834 836 839 840 841 843 844 846 847 848 850 851 852 853 854 855 855 856 856 857 859 860 861 862 862 863 864 866 867 868 869 870 870 871
801 799 789 784 786 789 792 791 792 796 797 800 804 808 809 804 806 810 809 808 807 812 815 816 822 822 815 812 809 805 806 802 798 800 802 802 804 805 806 808 809 811 810 811 813 816 819 821 824 827 829 831 833 835 838 839 841 843 844 846 847 848 850 851 852 853 854 855 855 856 857 857 859 860 861 862 862 864 865 866 867 868 869 870 871 871
803 793 783 783 787 791 793 792 794 796 793 795 800 805 808 804 807 814 812 809 808 810 813 816 822 823 818 816 810 804 802 800 798 799 798 799 803 803 803 805 807 810 812 812 812 814 817 820 823 825 828 830 832 834 836 838 840 842 843 845 847 848 849 850 852 853 854 855 856 857 857 858 859 860 861 862 863 864 865 866 867 868 869 870 871 871
794 786 781 786 790 792 794 793 794 796 792 789 796 800 804 808 807 807 809 809 809 811 810 815 829 829 822 824 818 806 803 801 800 800 799 799 800 801 801 802 805 807 810 812 811 812 814 818 821 824 827 829 830 833 834 836 839 840 842 844 846 848 849 850 851 853 854 855 856 857 858 859 859 860 861 862 863 864 865 866 867 868 869 870 871 871
789 784 784 790 792 792 795 795 791 794 793 788 793 796 800 808 806 803 807 807 810 818 812 814 838 840 823 823 824 816 811 806 802 801 802 801 801 802 803 803 803 804 807 809 809 811 813 816 820 822 825 827 829 831 833 835 837 839 841 843 845 847 848 850 851 852 854 855 856 857 858 858 859 860 861 861 862 863 865 865 866 868 869 869 871 871
786 784 785 790 792 792 796 795 787 790 796 794 792 793 797 803 804 804 808 807 809 819 815 811 832 843 831 823 821 819 817 812 807 803 801 801 802 804 804 803 803 803 805 808 808 810 812 814 818 821 823 825 827 829 832 834 836 838 840 842 844 846 848 849 851 852 854 855 856 857 857 858 859 859 860 861 862 863 864 865 866 867 868 869 870 871
784 788 790 790 791 793 795 794 785 785 796 799 793 793 796 801 805 805 806 807 806 810 815 811 819 837 836 823 815 814 815 815 813 806 800 799 801 802 802 801 801 801 803 806 808 809 811 813 815 818 821 823 825 828 830 832 835 837 840 842 844 845 847 849 850 851 853 854 855 856 857 858 859 859 860 862 862 863 864 865 866 867 868 869 870 871
782 788 790 790 793 794 790 786 780 782 793 794 790 791 795 802 809 806 803 804 803 811 819 812 814 831 831 818 813 812 813 815 812 806 800 798 798 800 801 799 798 799 800 802 805 807 809 812 814 816 819 821 823 826 829 831 834 836 839 841 843 844 846 848 849 851 852 854 855 856 857 858 859 860 860 862 862 863 864 865 866 867 868 869 869 870
780 781 781 785 790 789 784 779 778 784 790 786 786 791 794 802 808 805 803 802 807 819 819 809 812 825 823 814 817 819 814 810 805 801 799 795 795 797 798 798 796 797 799 799 801 804 807 811 812 815 817 820 822 824 828 830 832 835 838 840 842 844 846 847 849 851 852 854 855 856 857 858 859 860 860 861 862 863 864 865 866 867 868 868 869 870
777 775 777 781 783 779 777 778 779 781 783 783 788 793 798 806 807 804 799 799 815 822 809 802 806 816 819 809 808 812 805 798 796 795 794 791 792 794 794 794 794 795 798 799 800 802 806 810 812 814 816 818 821 823 827 829 831 834 836 839 841 843 845 846 848 850 851 853 854 855 857 858 859 860 860 861 862 863 864 865 865 866 867 868 868 869
777 781 780 776 774 774 777 781 781 778 780 785 790 795 807 815 814 812 807 808 824 823 806 800 800 811 822 806 793 796 791 788 789 786 788 790 790 791 791 791 791 793 795 797 800 802 804 809 811 812 815 817 820 823 825 828 830 832 835 837 840 842 844 846 847 849 851 853 854 855 856 857 858 859 860 861 861 862 863 864 865 865 866 867 868 868
778 777 775 773 771 772 780 786 785 783 784 787 789 798 814 821 825 830 825 820 821 813 802 798 803 816 816 793 783 788 786 784 783 778 781 785 786 787 788 789 789 790 793 795 799 801 803 807 810 811 814 817 819 822 824 827 829 831 834 836 839 841 843 845 846 848 850 852 853 854 856 857 858 859 859 860 861 861 862 863 864 865 865 866 867 867
780 775 771 776 776 771 776 784 791 792 789 789 791 802 811 817 835 839 823 816 815 808 800 796 806 816 803 782 776 780 780 778 776 774 776 779 781 783 783 785 787 788 791 793 796 800 801 804 808 810 813 816 818 821 823 825 827 830 832 835 837 840 841 843 845 847 849 851 852 854 855 856 857 858 859 859 860 861 862 862 863 864 864 865 866 866
790 791 778 777 776 771 772 774 779 783 786 786 781 789 795 799 822 828 811 810 810 803 802 805 811 809 798 785 774 770 771 771 772 772 774 777 777 777 779 782 786 788 790 792 793 797 799 802 807 809 812 815 817 819 821 824 826 828 831 833 836 838 840 842 844 846 847 849 851 853 854 855 856 857 858 859 860 860 861 861 862 863 863 864 865 865
791 793 777 770 768 768 771 766 763 774 785 780 771 784 789 781 793 804 798 796 797 799 802 803 802 789 781 778 768 768 770 767 772 774 775 780 777 775 780 783 785 787 789 791 793 795 797 800 805 807 809 813 815 817 819 821 824 827 829 832 834 837 839 841 843 844 846 848 850 851 853 854 855 857 857 858 859 859 860 861 861 862 863 863 864 865
792 792 774 770 769 765 767 763 761 772 783 780 779 789 782 767 779 798 799 789 794 809 801 786 787 776 772 777 770 770 774 769 773 778 777 782 780 778 781 783 784 785 787 790 791 793 795 798 802 805 807 810 812 815 817 820 823 825 828 830 833 835 837 839 841 843 845 846 848 850 851 853 854 855 856 857 858 858 859 860 861 861 862 862 863 864
788 792 775 771 777 768 760 762 762 763 769 779 787 782 771 772 781 792 807 803 802 814 797 780 787 781 780 791 781 773 777 775 775 779 780 782 782 781 782 782 783 782 784 788 789 791 794 797 800 803 805 808 810 813 815 818 821 823 826 828 831 833 835 837 839 841 843 845 846 848 849 851 852 853 855 855 856 857 858 859 859 860 861 861 862 863
780 793 782 771 779 775 763 768 774 767 763 771 776 769 772 794 800 796 811 817 813 818 805 784 782 781 786 791 783 777 778 777 776 779 783 784 783 783 781 783 783 781 783 786 787 790 791 794 798 801 804 806 808 811 813 817 820 822 825 827 829 831 833 836 838 839 842 843 844 846 847 849 851 852 853 854 855 856 857 858 858 859 859 860 861 861
775 792 793 776 779 784 775 775 782 778 771 770 773 771 773 786 795 795 800 803 808 820 823 809 791 787 790 785 779 780 776 773 775 776 780 782 781 781 780 781 782 781 782 784 786 788 788 792 796 798 802 804 807 810 812 815 818 820 823 825 827 830 832 834 836 837 840 841 842 844 845 847 848 850 851 852 854 854 855 856 857 857 858 859 859 860
773 786 794 784 784 792 788 782 777 774 778 780 780 786 786 781 784 793 793 788 795 811 830 839 818 792 784 780 777 777 773 769 770 771 774 777 778 780 778 777 779 779 780 782 783 785 786 790 793 796 800 803 805 808 810 813 816 818 821 823 825 828 830 832 834 836 838 839 841 842 843 845 846 848 850 850 852 853 853 855 855 856 857 857 858 859
776 781 787 785 787 792 789 781 772 769 773 775 781 795 797 787 789 804 802 788 789 801 817 837 834 805 785 780 774 770 769 767 765 766 770 773 775 778 777 775 776 778 779 780 781 782 784 787 790 794 798 801 804 807 809 811 814 817 819 822 824 826 828 830 832 834 836 838 839 841 842 843 845 846 848 848 850 850 851 853 853 854 855 856 857 857
774 779 784 785 782 781 780 775 771 770 769 772 787 797 791 784 792 806 806 794 792 799 806 820 828 810 787 778 773 768 766 763 761 763 766 770 774 776 776 776 776 777 779 779 778 779 782 785 789 792 796 799 803 805 808 810 813 816 818 820 823 825 827 829 830 832 834 836 838 839 840 842 843 844 846 847 848 848 849 850 851 852 853 854 855 855
776 781 788 789 781 775 774 772 769 771 778 788 795 791 783 784 790 793 796 796 793 799 814 826 822 803 785 777 772 768 764 761 761 762 765 770 772 775 777 778 778 779 780 779 779 779 781 784 787 790 794 798 801 804 807 809 811 814 817 819 822 823 825 827 829 831 833 834 836 838 839 840 841 842 843 844 845 846 847 848 849 850 851 852 853 853
782 789 795 800 802 797 790 791 793 788 789 796 795 788 784 785 787 785 786 796 798 794 805 818 810 794 784 777 773 770 767 765 763 762 765 768 771 775 778 779 780 780 781 782 782 781 781 783 785 789 793 796 799 802 805 808 810 812 815 817 819 821 824 826 827 829 831 833 835 836 837 838 839 840 841 842 843 844 845 846 847 848 849 850 851 851
785 796 801 810 822 817 807 813 822 807 790 787 787 787 789 789 792 792 791 801 805 793 791 800 800 794 787 779 777 775 770 769 768 765 765 767 770 774 778 780 782 781 782 784 784 783 782 783 785 788 791 795 797 800 803 806 808 810 812 814 817 819 822 824 826 827 829 831 832 834 836 837 837 838 839 840 841 842 843 844 845 846 847 848 849 850
785 794 798 807 814 809 801 805 810 799 788 789 791 789 790 791 794 797 797 798 795 790 790 787 782 788 790 784 783 780 774 773 771 768 768 769 769 772 775 780 782 782 783 784 784 784 784 785 786 788 791 793 795 798 801 803 806 808 810 812 814 817 819 822 824 826 827 829 830 832 833 834 836 836 837 838 839 840 841 842 843 844 845 846 848 849
789 796 796 800 805 801 796 795 792 790 791 793 792 790 790 791 793 798 798 788 784 796 801 784 772 782 789 787 787 785 779 777 775 773 773 773 771 771 772 777 781 783 784 784 784 785 785 786 787 788 791 793 794 796 799 801 804 806 808 810 812 815 817 820 822 823 825 827 828 829 830 832 833 834 836 837 838 839 840 840 842 842 844 845 846 847
790 796 792 794 801 797 794 793 789 788 790 788 788 788 788 789 792 798 797 783 780 794 798 787 783 785 786 788 789 787 783 781 779 777 774 774 776 774 773 776 781 782 784 785 785 785 786 787 787 789 791 793 794 797 798 801 803 805 807 809 810 812 814 817 819 821 823 824 826 827 828 830 832 833 834 836 836 838 839 839 840 841 843 844 844 845
785 792 789 793 802 800 794 793 790 787 788 787 787 786 786 786 788 794 796 786 782 785 783 780 786 787 786 789 788 785 783 780 778 777 776 777 781 781 778 780 782 783 784 785 786 785 786 787 788 789 792 793 795 797 799 801 803 805 807 808 810 811 813 814 816 818 820 821 823 825 827 828 830 831 833 834 835 836 837 838 839 840 841 842 843 844
784 790 790 795 807 807 797 793 792 789 789 789 788 786 786 787 788 791 792 788 787 789 783 778 785 791 789 785 785 785 784 781 780 780 780 780 783 786 786 785 785 786 786 786 787 787 788 788 789 791 792 794 796 797 799 802 803 804 806 808 809 811 813 814 815 816 817 819 820 823 825 827 828 830 831 832 834 835 836 837 838 839 840 841 842 843
781 788 791 799 813 812 800 795 793 787 788 794 794 791 789 791 794 797 796 794 795 799 799 792 788 790 789 785 786 788 786 787 788 785 783 783 784 787 789 790 790 790 790 790 789 789 790 791 792 793 793 795 797 798 799 801 802 803 805 806 808 810 811 814 815 816 817 818 820 822 824 825 827 828 829 831 832 833 834 836 836 837 839 839 840 841
779 785 792 801 813 812 801 796 792 787 795 801 795 792 792 791 795 798 799 802 801 804 814 811 793 784 786 787 789 790 789 791 792 789 788 787 786 787 789 791 793 793 793 793 792 792 792 793 795 796 796 797 799 800 800 800 801 803 804 805 807 808 809 811 812 815 816 817 819 821 823 824 826 827 828 829 830 832 832 834 835 836 837 838 839 840
779 782 786 791 801 805 796 790 791 797 807 804 789 786 791 791 794 799 801 804 804 803 810 807 791 783 787 788 790 792 792 793 793 791 791 789 790 792 792 792 794 794 795 795 795 794 794 794 797 798 798 799 800 801 801 801 801 802 803 804 805 806 808 809 810 812 814 816 818 820 822 824 825 826 827 828 829 830 831 832 833 834 835 836 837 838
781 781 783 785 790 793 790 792 803 810 807 797 787 785 789 790 793 796 796 797 799 800 804 802 793 789 790 792 793 793 793 794 794 793 792 791 791 793 795 795 795 795 796 796 796 797 796 795 797 797 798 799 801 801 802 802 801 802 802 803 804 805 806 806 808 810 812 814 816 818 820 822 824 825 826 827 828 829 830 831 832 833 834 834 835 836
780 781 782 784 788 792 794 799 811 811 797 788 788 788 788 790 793 796 797 797 797 799 804 804 797 792 792 794 794 793 793 794 795 796 796 795 795 795 797 797 796 796 797 797 798 799 798 797 797 798 800 801 802 802 802 802 802 802 802 802 803 804 804 805 807 808 810 812 814 816 818 820 822 824 825 826 827 828 829 830 831 832 833 833 834 835
777 780 783 786 790 795 796 795 799 802 798 792 791 789 788 790 793 797 802 801 795 795 802 803 797 791 791 792 791 792 791 792 798 802 800 798 798 797 797 797 798 798 798 799 801 800 799 798 798 800 802 802 802 802 802 802 803 802 802 803 803 804 804 805 806 807 809 811 813 815 816 818 820 822 824 825 826 827 827 828 830 831 832 832 833 833
774 778 783 789 790 790 794 796 796 803 807 800 791 787 787 789 790 794 799 798 792 793 800 802 796 789 788 789 789 789 789 795 806 809 803 801 800 798 798 798 798 799 799 800 801 800 799 799 800 801 801 801 801 801 801 802 802 803 803 803 803 805 805 806 807 807 809 811 812 813 815 817 819 821 823 824 826 827 827 827 828 830 831 832 832 832
775 776 777 785 789 787 794 800 799 802 807 801 792 788 788 790 790 792 800 801 796 797 803 805 801 794 791 790 788 787 790 802 813 812 804 802 801 799 799 800 799 800 800 799 799 799 800 801 801 800 799 799 801 802 802 802 802 803 804 803 804 806 806 806 807 808 809 812 814 814 815 816 818 820 822 824 825 826 827 827 827 828 830 831 831 832
779 778 778 785 786 786 793 795 790 793 798 795 790 788 788 788 789 798 811 810 800 799 805 807 805 802 797 793 791 791 793 802 810 809 803 802 802 800 801 801 801 802 801 800 801 801 801 801 801 800 800 801 803 803 803 803 803 803 803 803 805 807 807 807 808 809 810 813 815 816 816 816 817 819 821 823 822 822 825 827 827 827 828 829 830 831
784 782 782 785 783 783 792 794 789 792 796 791 789 789 787 787 792 803 814 810 801 801 806 806 806 805 802 798 797 798 799 800 803 804 802 803 803 803 803 804 804 804 803 803 803 803 803 804 804 804 804 805 805 804 804 804 805 805 805 804 806 809 809 808 809 810 812 814 815 817 816 815 816 817 820 823 821 819 821 825 827 826 826 828 829 830
788 787 786 786 784 784 788 789 790 797 797 790 789 789 788 794 801 804 804 801 800 803 806 806 805 804 803 802 802 804 803 801 802 803 804 805 806 806 807 807 806 806 806 805 805 805 806 806 807 807 808 808 808 807 806 806 807 807 806 805 807 809 809 809 810 812 813 815 816 816 815 814 815 817 820 822 821 819 820 824 826 825 825 827 828 829
786 790 790 785 784 788 792 793 799 804 798 790 791 794 795 799 801 798 796 797 798 800 801 803 804 803 803 804 805 806 806 804 804 805 806 806 807 807 808 808 808 809 808 808 809 808 808 808 810 810 810 810 810 810 809 809 809 809 808 807 808 810 809 809 811 813 814 815 815 815 815 816 817 819 821 820 820 820 821 823 826 826 825 826 827 828
784 790 790 783 784 792 798 800 802 801 793 788 792 795 795 795 792 791 793 796 797 798 799 800 802 802 802 804 806 807 808 808 808 808 808 809 809 809 809 809 809 810 810 811 811 811 811 811 812 813 814 813 812 813 812 812 812 812 811 811 811 812 811 811 814 815 815 815 815 816 817 818 819 820 819 818 818 819 821 823 826 827 826 826 826 828
786 787 788 786 787 791 793 794 794 792 788 788 790 791 791 792 790 789 792 795 797 798 798 799 801 802 801 803 806 807 807 808 808 808 810 811 812 812 812 811 811 812 812 813 814 814 814 814 815 816 816 816 816 816 815 815 815 815 816 816 816 816 816 816 817 817 817 817 818 819 820 820 820 820 820 819 819 820 821 825 826 826 826 826 827 828
784 783 784 786 787 789 790 790 788 788 788 787 787 788 789 791 791 791 792 795 797 797 796 797 800 800 801 803 805 807 807 808 808 810 811 812 813 814 815 814 814 814 815 815 816 816 816 816 817 817 818 818 819 819 819 818 818 818 819 821 820 819 820 820 820 820 820 821 822 822 822 822 822 822 822 823 823 822 823 826 826 826 826 826 828 829
783 782 782 785 789 793 795 792 788 788 789 788 788 789 789 790 791 791 793 795 796 795 796 796 798 799 801 803 805 807 808 808 809 811 812 813 815 816 816 816 817 817 817 818 818 819 819 819 819 819 819 820 821 821 821 821 820 820 822 822 821 822 822 822 823 823 824 824 825 825 825 824 825 826 826 827 825 824 825 827 827 826 826 827 829 830
782 782 783 784 788 791 793 792 789 789 789 788 789 790 790 790 791 791 792 793 794 795 796 797 798 800 801 803 805 807 808 809 811 812 813 814 816 817 818 818 819 819 819 820 820 821 821 821 822 822 821 822 822 822 823 822 822 823 824 824 823 824 824 825 825 826 826 826 826 827 828 828 828 829 829 829 827 826 827 829 829 828 828 829 830 831
779 781 782 783 787 791 792 792 791 792 793 791 790 790 790 790 791 792 793 794 795 797 798 798 799 800 802 804 806 807 809 811 812 813 814 816 817 818 819 820 820 820 821 821 822 822 823 823 824 824 824 824 824 824 824 824 825 826 826 826 826 826 827 827 828 828 828 828 829 830 830 830 830 831 831 831 830 829 829 831 832 832 831 831 832 833
778 781 781 782 786 788 787 787 788 790 792 792 791 790 790 790 791 793 795 796 798 799 800 800 801 802 803 805 806 807 810 812 813 814 816 817 818 820 821 821 822 822 822 823 824 824 824 825 825 825 826 826 826 826 826 826 827 827 828 828 828 828 829 829 829 829 829 830 831 831 831 832 832 833 833 834 833 832 832 833 834 833 833 833 834 834
775 776 777 779 782 780 778 780 783 784 786 789 791 791 790 790 792 795 796 798 799 800 800 801 803 804 804 805 806 808 810 812 813 814 815 817 819 821 821 822 823 824 824 825 825 826 826 827 827 827 828 828 828 828 828 828 828 829 829 829 830 830 830 830 830 830 831 831 832 832 833 833 834 834 834 835 835 834 835 835 835 834 834 835 835 835